Temp
29 28 27 26 27 28 29 29 29 30 30 30 29 28 27 26 26 30 32 34 35 33 32 34 32 31 29 28 29 28 28 28 27 27 27 27 27 27 26 26 26 26 26 27 27 27 27 27 26 26 26 25 25 25 25 24 24 24 24 23 23 23 23 23 23 23 23 23 23 23 23 23 23 24 24 24 24 24 25 25 25 25 25 24 24 24
29 27 26 28 29 29 30 30 30 30 30 30 29 27 27 26 27 31 32 33 35 32 31 33 32 30 29 28 29 29 28 28 28 27 27 27 27 27 27 26 26 26 27 27 27 27 27 27 26 26 26 26 25 25 25 25 24 24 24 24 24 23 23 23 23 23 23 23 23 23 23 23 24 24 24 25 25 25 25 25 25 25 25 25 24 24
27 26 27 29 29 29 30 30 30 30 30 29 29 27 25 27 28 30 32 34 34 32 31 33 31 29 29 29 29 29 28 28 28 28 28 27 27 27 27 27 27 27 27 27 27 27 27 27 27 26 26 26 26 25 25 25 25 24 24 24 24 24 23 23 23 23 23 23 23 24 24 24 24 24 25 25 25 25 25 25 25 25 25 25 25 24
24 26 29 29 29 30 30 30 30 29 29 29 28 26 24 28 28 26 30 33 34 33 33 32 30 29 30 29 29 29 29 29 29 28 28 28 28 27 27 27 27 27 27 27 27 27 27 27 27 26 26 26 26 26 25 25 25 24 24 24 24 24 24 23 23 23 23 23 24 24 24 24 24 24 25 25 24 25 25 25 25 25 25 25 25 24
26 28 29 29 29 30 29 29 30 28 27 28 28 26 26 28 28 27 30 33 33 33 34 32 27 27 29 28 28 29 29 29 29 29 28 28 28 28 28 28 27 27 27 27 27 27 27 27 27 27 26 26 26 26 25 25 25 25 25 24 24 24 24 24 24 23 23 23 23 24 24 24 24 24 24 24 24 24 25 25 25 25 25 25 25 25
27 29 29 29 29 29 29 29 29 28 26 26 28 29 28 29 30 30 31 31 28 27 32 31 23 23 28 28 28 29 29 29 29 29 28 28 28 28 28 28 28 28 27 28 28 28 28 27 27 27 26 26 26 26 26 25 25 25 25 25 25 24 24 24 24 24 24 24 24 23 23 23 23 23 24 24 24 24 24 25 25 25 25 25 25 25
28 29 30 29 29 29 29 28 29 29 25 24 28 31 31 30 30 30 30 28 24 24 31 32 25 22 25 27 29 29 29 29 29 29 29 29 28 28 28 28 28 28 28 28 28 28 28 28 27 27 27 26 26 26 26 26 25 25 25 25 25 25 24 24 24 24 24 24 24 24 24 23 23 23 24 24 24 24 24 24 25 25 25 25 25 25
30 29 29 30 29 28 27 27 29 30 26 24 29 32 31 31 30 30 29 27 26 27 29 32 28 23 22 26 30 30 29 29 29 29 29 29 29 28 29 28 28 28 28 28 28 28 28 28 28 27 27 27 27 27 26 26 26 25 25 25 25 25 25 24 24 24 24 24 24 24 24 24 24 24 24 24 24 24 24 24 24 25 25 25 25 25
31 29 28 29 28 27 27 28 30 30 28 27 31 32 31 32 31 31 29 27 27 26 24 27 29 24 22 26 30 30 29 28 29 29 29 29 29 29 29 29 29 29 29 29 28 28 28 28 28 28 27 27 27 27 26 26 26 26 25 25 25 25 25 25 24 24 24 24 24 24 24 24 24 24 24 24 24 24 24 24 24 24 25 25 25 25
31 29 29 30 28 28 28 30 30 30 29 30 31 32 32 32 31 31 30 27 26 24 22 24 26 24 22 25 28 28 27 28 29 30 30 30 30 29 29 29 29 29 29 29 29 29 29 28 28 28 28 28 27 27 27 26 26 26 26 25 25 25 25 24 24 24 24 24 24 24 24 24 24 24 24 24 24 24 24 24 24 24 24 25 25 25
31 31 30 30 30 30 30 30 30 30 30 31 31 31 30 31 31 30 29 27 24 22 22 24 26 25 23 24 27 27 28 30 30 30 30 30 30 30 30 30 30 29 29 29 29 29 29 29 29 28 28 28 28 27 27 26 26 26 26 25 25 25 25 24 24 24 24 24 24 24 24 24 24 24 24 24 24 24 24 24 24 24 24 24 24 25
31 30 30 31 31 31 31 30 30 31 30 30 31 29 27 26 27 26 25 25 23 21 23 25 27 25 22 24 28 30 31 32 31 31 31 31 30 30 30 30 30 30 29 29 29 29 29 29 29 28 28 28 28 27 27 26 26 26 26 25 25 25 25 24 24 24 24 24 24 24 24 24 24 24 24 24 24 24 24 24 24 24 24 24 24 24
28 29 30 31 32 32 30 29 29 30 30 30 29 26 23 22 23 23 22 23 22 22 25 27 26 24 23 27 32 32 32 32 32 33 32 32 31 31 30 30 30 30 30 30 29 29 29 29 29 28 28 28 28 27 27 27 26 26 26 25 25 25 25 24 24 24 24 24 24 24 24 24 24 24 24 24 24 24 24 24 24 24 24 24 24 24
25 28 30 30 31 31 31 28 26 27 28 28 27 24 22 22 22 22 22 22 22 22 25 27 26 23 23 29 34 33 32 33 33 33 33 33 32 32 31 31 31 31 30 30 30 29 29 29 29 28 28 28 27 27 27 27 26 26 26 25 25 25 25 24 24 24 24 24 24 24 24 24 24 24 24 24 24 24 24 24 24 24 24 24 24 24
22 24 28 29 30 31 31 30 28 29 29 29 29 27 23 22 22 22 22 22 22 23 24 25 25 23 23 29 34 34 33 33 33 34 34 33 33 32 32 31 31 31 31 30 30 30 30 29 29 29 28 28 28 28 27 27 27 26 26 25 25 25 25 24 24 24 24 24 24 24 24 24 24 24 24 24 24 24 24 24 24 24 24 24 24 24
22 23 28 30 30 32 31 31 32 31 28 29 31 28 24 25 25 23 23 23 23 23 23 23 24 25 28 31 34 34 33 34 33 34 34 33 33 33 32 31 31 31 31 31 30 30 30 29 29 29 29 28 28 28 28 27 27 26 26 26 25 25 25 25 24 24 24 24 24 24 24 24 24 24 24 24 24 24 24 24 24 24 24 24 24 24
22 23 30 31 30 32 32 32 33 31 28 28 28 25 27 30 29 23 22 23 23 22 23 23 24 26 28 31 33 33 33 33 33 33 34 33 33 33 32 31 31 31 31 31 31 30 30 30 29 29 29 29 28 28 28 28 27 27 26 26 25 25 25 25 24 24 24 24 24 24 24 24 24 24 24 24 24 24 24 24 24 24 24 24 24 24
25 24 29 32 30 31 32 32 33 32 31 29 25 27 30 31 30 26 22 23 23 22 23 23 23 24 24 27 32 33 32 33 33 33 33 33 33 32 32 32 31 32 32 31 31 31 30 30 29 29 30 29 29 28 28 28 27 27 27 26 26 25 25 25 25 24 24 24 24 24 24 24 24 24 24 24 24 24 24 24 24 24 24 24 24 24
28 23 27 31 31 31 33 31 29 31 33 31 29 31 30 25 24 24 23 22 22 22 23 23 23 24 23 25 31 32 32 33 33 32 33 33 33 32 32 32 32 32 32 32 31 31 31 30 30 29 30 30 29 29 28 28 28 27 27 26 26 26 26 25 25 25 24 24 24 24 24 24 24 24 24 24 24 24 24 24 24 24 24 24 24 24
29 24 24 29 32 32 32 29 26 27 31 32 31 32 31 27 25 24 24 23 23 22 22 23 23 23 25 29 33 34 33 33 33 33 33 33 33 33 32 32 32 32 32 32 32 31 31 31 30 30 30 30 30 29 29 28 28 27 27 27 26 26 26 25 25 25 25 24 24 24 24 24 24 24 24 24 24 24 24 24 24 24 24 24 24 24
30 26 23 27 31 29 28 28 28 28 29 29 27 27 28 28 27 26 25 24 24 22 22 23 22 23 28 32 36 37 35 33 33 33 33 33 33 33 33 33 33 32 32 32 32 32 32 31 31 31 30 30 30 29 29 28 28 28 27 27 26 26 26 25 25 25 25 24 24 24 24 24 24 24 24 24 24 24 24 24 24 24 24 24 24 24
29 26 24 24 26 25 26 31 32 31 31 30 28 27 27 27 26 24 24 24 24 23 23 23 22 24 30 32 34 38 36 33 33 33 33 33 33 33 33 34 33 33 32 32 32 32 32 32 31 31 31 30 30 30 29 29 28 28 27 27 26 26 26 25 25 25 25 25 24 24 24 24 24 24 24 24 24 24 24 24 24 24 24 23 23 24
27 27 25 23 25 27 30 33 32 32 33 32 31 31 31 29 26 23 22 23 24 23 23 24 22 25 33 33 33 38 37 34 33 33 33 33 33 33 34 34 34 33 33 33 32 33 32 32 32 31 30 30 30 30 29 29 28 28 28 27 27 26 26 26 25 25 25 25 25 25 24 24 24 24 24 24 23 24 24 24 24 24 24 23 23 23
24 26 24 23 26 29 30 32 31 32 32 31 30 32 31 30 28 27 26 25 24 23 23 23 21 25 33 34 32 35 36 36 34 32 33 33 33 34 33 33 34 33 33 33 33 33 33 32 32 31 30 29 29 29 29 29 29 28 28 27 27 27 26 26 26 25 25 25 25 25 24 24 24 24 24 23 23 24 24 24 24 24 24 23 23 23
22 24 23 22 23 24 25 27 27 29 30 29 30 32 32 32 31 30 28 26 24 23 23 23 22 25 32 33 33 33 33 35 34 32 33 33 33 34 34 33 33 33 33 33 33 33 33 32 32 31 31 29 28 29 29 29 29 28 28 28 27 27 27 26 26 25 25 25 25 25 24 24 24 24 24 23 23 23 24 24 24 23 23 23 23 23
21 22 23 22 21 22 22 23 24 26 28 29 31 31 32 32 31 29 26 24 23 23 24 23 22 27 33 34 35 35 34 35 36 33 32 33 33 34 34 33 33 33 33 32 32 33 33 32 32 31 30 29 28 29 29 28 29 28 28 28 28 27 27 26 26 26 25 25 25 25 24 24 24 24 24 24 23 24 24 24 23 23 23 23 23 23
21 22 23 22 22 22 22 23 26 29 27 26 28 30 31 32 32 30 25 23 23 23 23 24 25 27 31 34 36 36 35 37 38 35 33 33 33 33 34 34 33 32 32 32 32 32 32 32 32 31 30 29 29 29 29 29 29 28 28 28 28 28 27 26 26 26 26 25 25 25 24 24 24 24 24 24 24 24 24 23 23 23 23 23 23 23
20 21 22 23 22 22 22 23 26 28 28 27 28 29 30 31 31 29 25 25 27 24 22 26 29 26 29 35 36 35 36 37 37 37 35 34 33 33 33 33 33 32 32 32 32 32 32 32 31 31 30 29 29 29 29 29 29 29 28 28 28 28 27 27 26 26 26 25 25 25 25 25 24 24 24 24 24 24 24 23 23 23 23 23 23 23
19 19 21 22 21 22 23 23 24 26 29 30 30 29 30 31 30 28 26 28 29 25 23 28 29 27 30 36 37 36 37 36 35 35 35 34 33 33 32 32 33 32 32 32 32 32 32 32 31 30 30 29 29 28 28 29 29 29 28 28 28 28 27 27 26 26 26 25 25 25 25 25 25 24 24 24 24 24 24 23 23 23 23 23 23 23
18 19 21 21 21 21 22 23 25 26 28 29 30 31 31 31 30 30 29 30 30 28 29 30 29 29 32 35 36 37 37 35 32 33 34 34 34 33 32 32 33 32 32 32 32 32 31 31 31 30 30 29 29 28 28 28 28 28 28 28 28 28 28 27 27 26 26 25 25 25 25 25 25 24 24 24 24 24 24 23 23 23 23 23 23 23
18 19 20 21 20 21 22 24 25 25 26 27 28 31 32 31 31 31 30 31 29 28 31 30 28 28 31 33 35 37 36 33 32 33 35 35 35 34 33 32 32 32 33 32 32 31 31 31 31 30 30 29 29 28 28 28 28 28 28 28 28 28 28 27 27 26 26 26 26 25 25 25 25 24 24 24 24 24 24 23 23 23 23 23 23 23
18 18 19 20 19 20 22 23 23 24 25 25 26 28 30 29 29 30 31 31 29 28 29 28 25 28 32 32 33 34 33 33 34 35 35 36 35 34 34 34 32 32 32 33 32 31 30 30 30 30 29 29 28 28 28 28 28 28 28 28 28 28 28 27 27 27 26 26 26 25 25 25 25 24 24 24 24 24 24 23 23 23 23 23 23 23
18 18 18 18 18 19 21 22 22 23 23 23 25 28 30 30 30 31 31 32 32 30 29 27 27 31 33 32 31 33 34 34 34 34 34 34 33 32 33 34 33 32 32 32 31 31 30 30 30 30 30 29 29 29 29 29 28 28 29 29 29 28 28 28 27 27 26 26 26 26 25 25 25 25 24 24 24 24 24 23 23 23 23 23 23 23
18 18 18 18 18 19 21 22 22 22 21 23 28 32 32 31 31 31 31 32 32 32 31 30 32 33 32 31 32 34 35 33 33 31 29 30 31 31 31 31 31 32 32 32 32 31 31 30 30 30 29 29 29 30 30 29 29 29 29 29 29 29 28 28 27 27 27 26 26 26 25 25 25 25 24 24 24 24 24 23 23 23 23 23 23 23
17 17 18 18 19 19 21 21 21 21 22 26 31 33 33 33 32 32 32 33 32 31 32 32 32 33 32 31 31 32 32 30 29 28 26 25 26 29 31 30 30 30 31 31 32 32 31 31 31 30 29 29 29 30 30 30 29 29 29 29 29 29 28 28 28 27 27 26 26 26 26 25 25 25 25 24 24 24 24 24 24 23 23 23 23 23
18 18 18 19 19 20 20 21 21 22 24 27 30 29 28 30 31 31 30 30 30 29 30 31 33 33 33 31 30 30 30 28 27 27 26 24 24 25 27 28 29 30 31 31 31 32 31 31 30 30 29 29 29 29 30 30 30 29 29 29 29 28 28 28 28 27 27 27 26 26 26 25 25 25 25 24 24 24 24 24 24 24 23 23 23 23
18 18 18 19 20 20 20 20 21 22 23 26 26 24 22 23 25 26 27 29 29 28 28 31 34 34 33 31 30 29 28 29 30 30 26 24 23 23 23 24 25 27 30 31 30 30 30 29 29 29 29 29 29 29 30 30 30 30 29 29 29 28 28 28 28 28 27 27 27 26 26 26 25 25 25 24 24 24 24 24 24 24 24 23 23 23
19 19 19 19 20 21 21 21 21 21 22 23 22 21 21 21 20 21 24 27 29 27 26 29 32 32 31 30 29 28 29 31 32 31 27 23 22 22 22 22 22 24 26 27 29 29 29 29 30 29 29 29 29 29 30 30 30 29 29 29 28 28 28 28 28 28 27 27 27 27 26 26 26 25 25 25 24 24 24 24 24 24 24 23 23 23
20 20 20 19 20 21 21 20 21 21 22 21 20 20 21 20 20 21 23 25 28 27 26 27 29 29 30 29 28 29 32 34 32 29 25 22 21 21 21 21 22 22 22 23 25 25 25 27 30 31 30 29 29 29 30 30 30 29 28 28 28 28 28 28 28 28 28 28 27 27 27 26 26 25 25 25 25 25 24 24 24 24 24 24 23 23
20 20 20 19 19 20 20 20 20 21 22 21 19 20 20 19 21 23 23 24 26 26 25 26 26 26 27 28 29 29 31 32 30 26 22 20 20 20 20 20 20 21 21 21 22 21 22 24 28 30 29 29 30 30 30 30 30 29 28 28 28 28 28 28 28 28 28 28 28 27 27 27 26 26 25 25 25 25 25 24 24 24 24 23 23 24
20 20 20 19 20 20 20 19 20 21 21 20 19 20 20 20 23 24 23 24 26 25 24 24 24 24 24 26 28 26 24 24 24 22 20 20 20 19 19 19 20 20 20 20 20 21 21 22 25 27 28 29 30 30 30 30 29 28 28 28 28 28 29 29 29 29 29 28 28 27 27 27 26 26 26 26 25 25 25 25 24 24 24 24 23 23
19 19 20 20 20 19 19 19 19 20 20 19 18 19 21 22 23 22 21 22 23 23 23 22 22 22 22 22 23 22 20 20 20 19 19 19 19 19 19 19 19 20 20 20 20 20 20 20 22 23 26 28 29 29 30 29 28 28 28 27 27 29 29 29 29 29 29 28 28 27 27 27 27 26 26 26 25 25 25 25 24 24 24 24 23 23
18 18 19 20 20 18 18 19 19 20 20 19 18 19 20 20 20 19 18 20 22 22 22 21 21 21 21 20 20 19 19 19 19 19 19 19 19 19 19 19 19 19 19 20 20 19 19 20 20 20 22 25 28 29 30 29 28 28 27 27 28 29 29 29 29 29 28 28 28 28 27 27 27 26 26 26 26 25 25 25 24 24 24 23 23 23
17 17 18 20 20 19 18 19 19 19 19 18 18 18 18 18 19 18 18 20 22 21 20 20 20 20 20 19 19 19 19 19 19 19 19 19 19 19 18 19 19 19 19 19 19 19 19 19 20 19 20 22 25 27 28 29 29 27 27 28 29 29 29 29 29 29 28 28 28 28 27 27 27 27 26 26 26 25 25 25 24 24 24 23 23 22
17 17 17 18 20 19 19 19 19 19 18 18 18 17 17 18 19 18 18 19 20 20 20 20 19 19 19 19 19 19 19 19 19 18 18 18 18 18 18 19 19 19 19 19 19 18 18 18 19 19 19 21 22 24 25 27 28 27 27 28 29 29 29 29 29 29 29 28 28 28 27 27 27 26 26 26 26 25 25 24 24 23 22 22 22 21
16 16 16 17 18 19 19 18 18 18 18 18 17 17 17 17 17 17 17 17 18 18 19 19 19 19 19 18 18 18 18 18 18 18 18 18 18 18 18 18 19 19 19 19 18 18 18 18 18 18 19 19 20 21 23 24 25 25 27 28 29 29 29 29 29 29 29 28 28 28 27 27 26 26 26 26 26 25 25 24 23 22 21 21 21 20
16 16 16 17 18 19 18 18 18 18 17 17 17 17 17 17 17 17 16 16 17 17 18 18 18 18 18 17 17 17 17 17 17 17 17 17 17 17 18 18 18 19 19 19 18 18 18 18 19 19 19 19 19 19 21 22 23 24 25 26 27 28 29 29 29 29 28 28 28 27 27 26 26 26 26 26 25 25 24 23 22 21 21 20 20 19
15 15 16 16 17 18 18 17 17 18 17 17 17 17 17 17 17 16 16 16 17 17 17 17 17 17 17 17 17 17 17 17 16 16 17 17 17 17 17 18 18 19 19 19 18 18 18 18 18 19 19 19 19 19 19 21 22 22 23 25 25 26 27 28 28 28 27 27 27 26 26 26 25 25 25 24 24 24 23 22 21 21 20 20 20 20
14 15 16 16 16 17 17 17 17 18 18 17 17 17 17 17 17 16 16 16 16 16 17 17 17 17 17 17 17 17 17 16 16 17 17 16 17 17 17 18 18 18 18 19 18 18 18 18 18 18 18 18 19 19 19 19 20 20 21 23 24 24 25 25 25 25 25 25 25 25 25 25 24 24 23 23 22 22 21 21 21 20 21 21 21 22
14 15 16 16 16 17 17 17 17 18 18 17 16 16 17 17 16 16 16 16 16 16 16 17 16 16 17 17 17 17 17 16 17 17 17 17 17 17 17 17 18 18 18 18 18 18 18 18 18 18 18 18 19 19 19 19 19 19 20 21 21 22 22 23 22 22 22 23 23 23 23 23 23 23 22 21 20 20 19 19 20 20 20 20 20 22
14 14 15 16 16 17 17 17 17 18 18 17 16 16 17 16 16 16 16 16 16 16 16 16 17 17 16 16 16 17 17 17 17 17 17 17 17 17 17 17 17 18 18 18 18 18 18 18 18 18 18 18 18 19 19 19 19 19 19 19 20 20 21 21 21 20 21 21 21 22 22 21 21 21 20 19 19 19 17 17 17 18 18 19 19 20
Height
734 747 751 748 748 747 746 746 748 749 750 752 755 758 758 760 755 744 740 729 722 738 741 735 740 743 745 745 741 742 743 747 751 752 753 752 753 753 755 755 755 754 752 751 755 757 760 763 766 769 772 775 778 781 783 785 787 789 792 794 795 798 800 802 803 806 808 809 811 813 813 814 815 817 818 819 820 821 822 824 825 827 828 829 830 831
734 747 746 741 741 740 741 743 744 747 748 751 754 757 757 758 753 740 738 731 722 738 742 733 741 744 741 741 739 740 744 747 747 749 750 749 750 750 751 752 751 750 749 752 755 755 758 761 763 767 769 772 775 777 779 781 784 787 789 791 793 795 797 799 800 803 804 806 807 808 809 811 813 814 815 816 818 819 821 822 824 825 827 828 829 830
743 742 737 735 736 737 739 740 743 746 748 751 752 757 758 753 748 740 734 729 725 736 741 736 743 745 738 737 737 736 738 739 737 738 740 742 746 748 748 748 748 749 751 752 753 752 754 757 760 763 766 768 770 772 775 778 781 784 786 788 790 792 793 796 798 800 801 803 805 807 808 809 811 812 814 815 816 818 820 821 822 824 825 826 827 828
747 737 729 731 732 736 741 740 743 747 748 751 752 757 755 746 749 749 737 730 726 729 734 736 742 745 743 742 739 735 731 732 733 734 735 736 739 740 739 740 742 745 748 749 749 749 750 753 757 759 761 763 766 769 772 775 778 780 781 783 785 788 790 793 795 797 800 802 805 807 808 809 810 812 813 815 816 817 818 819 820 822 823 825 826 827
738 728 722 727 731 736 742 742 744 750 751 749 748 751 748 742 747 748 740 734 729 727 727 735 750 752 749 752 747 738 734 735 735 737 739 737 735 734 735 736 737 738 741 743 744 745 746 749 751 753 756 759 762 765 767 769 771 773 775 778 781 784 786 789 792 795 798 801 804 806 808 809 810 811 812 812 813 814 815 816 818 820 821 823 824 825
731 722 719 727 732 734 741 743 743 748 753 750 742 739 739 740 743 743 741 740 744 745 730 734 763 765 749 751 749 741 741 741 738 739 740 738 736 737 738 737 735 735 736 736 737 738 740 742 745 749 752 756 758 760 761 763 766 768 771 775 778 781 783 786 789 792 796 798 801 803 804 805 806 807 807 807 808 810 812 813 815 818 819 821 822 823
723 719 719 726 732 734 740 742 737 740 754 754 735 727 731 737 742 743 743 747 756 756 733 729 758 767 754 750 745 741 743 740 737 738 737 736 736 735 735 734 733 733 734 735 734 733 734 736 740 744 748 751 753 754 756 760 762 766 769 772 775 778 780 783 786 789 792 794 796 798 799 800 802 803 802 803 806 808 810 812 814 816 817 819 820 821
714 720 723 724 730 735 738 738 731 734 750 747 725 723 730 733 740 741 744 751 750 747 738 731 743 759 760 749 737 736 741 741 738 738 735 733 733 731 730 729 728 728 728 731 733 732 732 733 735 738 741 743 745 748 752 756 760 763 766 768 771 774 776 779 783 786 788 790 792 794 796 798 799 799 800 802 804 807 809 811 813 814 816 817 818 819
707 719 723 722 730 733 731 728 724 730 740 732 720 724 727 729 736 737 742 749 744 748 755 740 737 758 760 740 730 733 740 744 740 735 732 729 728 727 727 725 723 723 722 724 727 727 727 728 730 732 734 736 739 743 748 751 754 758 761 765 767 770 773 776 779 782 784 787 789 791 793 795 796 797 799 801 803 805 807 809 811 812 814 815 815 816
706 708 709 716 725 726 722 720 719 725 729 720 719 725 724 726 731 734 742 746 746 758 762 744 737 756 757 735 732 740 741 740 735 728 725 721 720 721 721 720 719 719 720 720 721 721 721 721 723 726 729 732 735 740 743 746 750 754 758 761 764 767 770 773 776 778 781 784 787 789 790 791 793 795 797 799 801 803 805 807 809 810 811 812 813 814
701 698 700 708 713 712 714 715 714 717 718 717 724 730 732 732 730 735 740 741 755 764 753 738 732 746 753 736 728 734 729 725 725 723 721 718 717 717 715 715 715 715 716 716 717 718 717 717 719 722 726 729 733 737 741 744 747 751 754 758 760 763 766 769 772 775 777 780 783 785 787 789 790 793 795 797 798 801 803 804 806 807 808 809 810 811
704 705 704 700 698 701 709 714 713 712 713 721 729 735 744 746 740 744 744 746 764 763 741 730 728 739 751 733 718 717 710 707 713 715 715 714 712 711 709 708 708 709 711 712 714 715 716 718 719 722 725 727 731 735 738 742 745 748 751 754 757 759 762 765 768 771 773 776 779 781 783 785 788 790 792 794 795 797 799 801 803 804 805 806 808 809
712 708 703 698 694 695 709 720 719 716 716 724 732 739 756 764 761 763 761 758 761 751 730 723 728 739 738 716 704 705 701 699 700 700 701 702 703 702 701 701 702 704 706 708 710 711 713 715 716 718 721 724 728 731 734 737 740 744 747 750 753 755 758 761 764 767 769 771 773 776 778 781 784 787 789 791 793 795 796 798 800 801 802 803 804 806
722 712 703 703 699 691 702 718 725 723 720 726 732 740 757 768 775 780 773 763 757 743 726 720 729 739 729 704 692 694 692 688 687 688 688 689 691 691 690 693 696 699 701 703 705 707 709 710 710 712 714 718 722 725 729 732 735 739 743 745 748 751 754 757 760 763 765 767 769 772 774 777 780 783 785 788 790 792 794 796 797 798 798 799 800 802
732 726 707 702 700 691 695 702 708 713 717 720 719 729 744 750 761 770 766 761 756 742 731 730 734 734 722 699 681 679 681 678 678 678 678 681 682 681 683 689 694 695 696 698 700 702 703 703 704 706 709 712 715 719 723 727 730 734 737 741 744 747 750 753 756 759 761 763 765 768 771 773 776 778 781 784 786 789 791 793 794 795 795 796 797 799
726 721 695 689 688 685 692 691 690 705 718 715 711 724 735 728 733 746 746 743 742 740 735 732 728 715 700 685 672 671 674 673 675 674 676 680 679 681 687 690 691 692 692 693 695 697 698 698 700 702 705 707 710 715 718 722 725 729 732 736 739 742 745 748 751 754 756 759 762 764 767 770 772 775 777 780 783 786 788 790 791 792 793 794 795 797
721 713 687 685 687 681 685 686 684 698 712 712 715 722 716 707 716 736 742 732 734 748 740 724 718 707 697 688 674 673 677 675 676 675 676 678 677 682 687 687 688 687 686 687 689 691 692 693 696 698 700 703 706 710 713 716 719 722 726 731 735 739 742 745 747 749 752 755 758 760 763 766 768 771 773 776 778 781 784 787 788 789 791 792 793 795
707 708 688 683 691 680 674 681 682 683 692 707 716 710 702 707 713 725 742 740 742 753 739 719 716 711 709 701 681 678 683 680 678 677 675 675 677 682 682 681 681 679 679 681 682 685 687 688 691 693 695 698 700 704 706 709 713 717 722 725 729 734 737 740 743 746 749 751 754 756 758 761 764 767 770 772 775 778 781 783 785 787 788 789 791 793
694 707 694 679 685 679 670 684 695 684 679 689 697 691 699 722 727 725 737 742 747 753 737 722 717 709 707 699 684 683 685 680 678 677 677 676 677 678 677 675 675 674 676 679 680 682 682 683 686 688 690 693 696 699 700 704 710 714 718 721 724 728 730 734 738 741 744 746 749 751 754 757 760 763 766 769 772 774 776 778 781 783 785 787 789 790
686 703 700 680 675 676 676 689 702 697 684 682 688 689 692 705 714 718 723 724 735 746 740 731 723 706 695 685 677 679 679 675 675 675 675 674 672 672 671 670 670 671 673 674 675 676 677 678 679 681 685 688 690 694 697 702 708 711 714 718 721 725 728 732 735 737 740 742 745 748 751 754 756 759 762 765 768 770 772 774 777 779 782 784 786 787
682 697 701 687 676 680 686 687 689 693 691 691 697 699 695 694 698 706 711 707 716 732 736 737 728 701 681 674 667 665 667 668 668 669 668 666 664 664 663 662 664 665 666 667 667 669 671 672 673 676 679 682 686 690 694 700 704 707 711 715 717 722 725 729 731 734 736 739 742 745 747 750 753 756 760 762 764 766 768 770 772 775 779 781 783 785
685 691 696 691 684 686 684 672 669 675 679 685 692 693 693 694 699 713 720 707 702 712 717 723 723 695 669 666 661 654 658 661 659 661 661 659 657 657 655 654 656 657 659 660 661 663 665 666 669 671 675 680 684 688 693 696 700 703 707 710 714 718 721 723 726 729 732 735 739 741 743 747 750 753 756 759 761 762 764 766 768 772 775 778 780 782
684 686 689 688 681 679 673 660 659 663 664 672 679 681 684 689 695 710 720 709 701 704 702 707 714 689 660 657 656 649 650 652 653 655 656 655 652 651 650 648 650 651 652 653 655 657 659 661 663 666 671 677 681 684 688 691 695 698 701 705 710 713 715 718 722 725 729 732 734 737 741 744 747 749 752 755 757 758 760 762 764 768 771 774 777 779
689 687 690 690 679 670 666 659 657 658 662 672 674 672 676 682 684 687 695 697 698 701 702 710 715 687 656 651 652 649 647 647 649 651 652 652 650 648 647 646 647 649 648 650 651 653 655 656 659 664 669 673 676 680 683 686 689 693 696 701 705 707 710 714 719 723 726 728 730 734 737 740 743 746 748 750 752 754 756 758 761 764 767 770 774 777
706 700 696 700 698 691 685 680 674 668 668 672 672 668 667 671 675 679 685 693 696 695 696 707 710 685 659 652 651 651 651 648 648 648 648 649 648 646 645 644 645 646 647 649 650 651 653 655 659 663 666 668 671 674 678 681 684 688 692 696 699 702 707 711 715 719 722 724 728 731 733 736 739 741 743 745 747 750 752 755 758 760 763 767 771 774
714 708 700 703 708 707 702 693 683 676 674 670 666 664 664 664 670 678 685 694 700 696 690 694 695 678 660 654 648 648 652 648 646 647 647 646 644 643 642 643 644 645 646 647 648 648 650 652 656 659 660 663 666 669 672 676 679 683 687 690 694 698 703 707 711 715 718 721 724 727 729 732 734 736 738 741 743 746 749 752 755 757 760 764 767 771
708 704 698 698 701 700 697 688 672 665 668 669 665 662 662 660 662 670 682 688 692 694 688 681 679 674 665 657 651 648 649 645 641 643 646 644 642 641 639 639 640 642 643 643 643 645 647 650 652 654 655 658 660 663 667 670 674 678 682 685 689 694 698 702 706 710 713 716 719 722 725 726 728 731 734 737 740 744 747 750 752 754 757 761 764 768
712 712 702 697 697 696 694 688 675 663 659 660 661 662 660 659 660 666 674 674 675 687 690 676 669 673 668 656 651 649 646 643 639 638 639 640 639 638 637 636 637 638 640 641 643 644 646 648 649 649 651 653 656 660 663 666 670 673 676 680 685 690 694 698 702 705 708 711 714 717 718 721 724 727 731 734 738 742 745 748 750 752 755 758 761 764
720 719 704 698 698 692 687 684 677 668 658 651 653 656 655 657 659 661 664 664 664 674 677 669 666 670 665 652 647 644 640 639 639 636 635 635 635 634 635 636 636 636 636 638 641 643 643 644 644 646 648 649 652 656 659 663 666 669 673 677 681 686 689 692 697 700 703 706 708 710 712 717 721 724 728 732 736 739 742 745 748 751 753 756 758 760
720 717 704 701 701 692 686 680 671 666 660 652 649 648 648 651 652 652 655 658 658 658 659 661 663 662 655 646 639 634 632 634 638 637 635 634 633 632 634 635 635 633 633 633 634 635 637 637 638 640 643 645 648 651 654 658 661 665 669 673 677 681 683 688 692 694 698 700 701 704 708 713 717 721 725 729 732 736 739 742 746 749 751 753 755 758
721 719 707 703 706 698 685 676 671 668 663 656 651 645 643 644 645 645 648 652 659 660 657 659 665 662 651 641 634 629 629 634 637 636 634 631 630 631 633 633 632 630 629 628 628 630 631 632 634 636 639 642 643 645 649 652 656 660 664 668 672 675 678 683 686 689 692 693 694 700 705 709 713 717 721 725 728 732 736 740 744 747 749 751 753 756
723 722 712 709 715 705 686 680 679 672 665 660 653 645 641 641 641 639 640 644 652 658 659 661 666 661 646 637 636 633 632 635 634 632 632 629 628 629 629 629 628 627 625 624 625 627 628 629 631 633 635 636 638 641 644 647 652 656 660 663 666 669 674 679 681 684 686 687 692 697 700 704 708 712 716 720 724 728 733 737 741 744 746 748 750 752
722 724 719 718 721 709 691 687 683 677 676 665 645 635 636 636 636 635 636 636 638 645 653 656 653 644 634 634 639 637 634 635 632 630 631 629 628 629 627 624 623 622 621 620 622 623 625 625 626 627 628 629 632 635 638 641 646 650 653 657 660 666 671 675 677 680 682 685 690 693 696 700 704 708 711 715 719 724 729 734 737 740 742 744 746 748
719 722 722 720 722 713 696 687 687 688 683 654 623 618 627 631 634 636 635 633 631 633 636 636 633 630 629 634 637 633 630 631 630 629 631 629 628 628 627 624 622 619 617 617 618 619 620 621 622 622 623 625 627 629 633 637 640 643 647 652 658 663 667 670 672 675 677 681 686 689 692 697 700 703 707 711 716 721 726 729 732 735 738 740 742 743
718 721 721 717 717 711 696 693 699 693 668 637 617 614 616 619 625 631 630 626 625 627 628 628 628 626 626 630 632 629 629 632 631 631 632 631 628 626 624 624 622 620 618 616 615 615 617 618 621 622 622 623 625 628 632 635 637 641 646 650 655 659 662 664 668 670 674 678 681 685 689 692 695 699 703 708 713 717 720 723 726 730 732 734 736 737
713 716 717 713 711 707 701 701 700 681 650 631 626 625 625 626 627 631 633 630 626 626 627 627 625 621 621 625 628 629 631 632 632 631 630 630 629 627 626 623 620 619 617 615 614 612 611 611 613 615 617 620 623 626 629 632 635 639 643 646 650 653 656 660 664 667 671 675 678 682 685 687 691 695 700 705 709 712 714 717 720 723 726 728 730 731
704 708 712 712 706 702 703 699 688 673 654 641 642 647 652 655 649 642 638 630 623 624 625 622 618 617 620 622 624 627 629 630 632 631 628 629 629 627 626 624 620 617 614 613 613 611 610 609 608 609 612 616 620 622 624 627 632 636 640 643 646 650 653 657 660 662 666 669 673 677 681 684 687 691 696 701 704 706 708 711 713 717 719 722 723 725
691 697 704 709 702 695 698 696 689 683 667 654 656 657 654 655 655 651 646 632 620 620 622 618 616 617 619 622 625 626 626 632 638 635 629 630 630 627 625 622 618 616 614 612 611 610 609 611 612 613 614 616 618 619 621 625 630 634 638 641 643 647 651 653 655 657 660 663 666 670 675 680 684 688 692 695 697 700 702 705 708 710 713 715 717 719
681 685 691 701 699 692 695 699 697 687 668 658 662 656 646 647 646 646 651 642 623 618 620 619 619 619 618 620 624 623 624 634 642 638 632 632 632 628 626 623 618 617 615 613 613 612 610 610 612 615 617 618 618 619 622 626 630 633 636 637 640 643 646 648 650 652 655 657 660 664 669 674 679 684 687 689 690 693 696 699 702 705 707 710 713 716
681 682 687 698 699 694 695 699 695 680 664 660 661 652 644 644 638 641 654 646 625 618 620 620 622 623 620 619 621 624 629 633 637 637 635 633 632 629 627 625 622 621 618 616 615 614 611 610 610 612 614 615 615 617 621 625 628 631 632 634 637 639 640 641 643 647 650 653 657 662 666 670 674 677 680 682 684 687 691 694 697 701 704 706 709 713
681 680 684 690 693 691 695 699 694 679 665 663 662 653 643 638 634 642 651 641 626 622 620 620 624 625 623 621 622 629 637 636 635 636 635 633 632 631 628 625 623 621 620 619 617 615 613 611 611 611 612 613 615 617 620 623 626 628 630 632 634 633 632 633 637 640 645 649 655 659 662 665 668 670 672 675 678 682 686 689 692 696 699 702 706 710
681 681 680 681 686 690 693 697 697 686 669 663 662 651 640 640 646 651 649 639 632 627 622 622 625 624 624 626 627 633 639 638 635 636 635 634 633 631 628 625 623 621 619 617 616 614 613 612 613 613 614 614 616 617 619 622 624 625 628 631 631 628 627 630 633 637 641 645 650 655 658 661 664 666 669 672 675 678 681 684 688 691 695 699 702 706
679 684 684 677 681 693 697 697 700 691 672 664 664 657 652 657 662 660 652 642 635 631 626 625 625 624 625 629 634 637 639 639 639 638 637 636 635 633 630 628 626 625 622 620 619 617 616 614 614 614 615 615 615 616 618 620 622 624 626 628 627 628 630 632 634 636 639 643 647 650 653 657 660 663 666 669 671 674 677 680 684 688 691 696 700 704
679 684 686 675 673 686 694 693 690 683 671 668 671 670 667 664 659 655 653 646 638 634 630 627 627 627 626 629 635 638 640 641 642 640 639 639 637 635 634 631 629 628 626 624 624 622 621 619 617 616 616 616 616 617 617 618 620 622 624 624 625 627 630 632 634 636 638 641 643 645 648 651 655 659 663 666 669 673 676 679 682 685 689 693 697 702
678 677 683 678 669 671 678 676 672 672 670 669 671 670 666 659 653 652 653 650 644 639 632 629 631 631 629 630 634 637 640 642 642 642 641 641 639 638 636 634 632 631 629 627 626 625 624 624 623 621 620 619 619 619 619 619 619 620 620 620 622 625 627 629 632 634 635 637 639 642 644 647 651 654 657 662 666 669 673 676 679 682 686 689 693 696
676 674 679 679 671 666 668 668 666 670 673 670 668 665 660 656 655 656 657 656 651 643 636 633 633 632 632 633 635 639 643 644 644 645 644 643 643 641 639 637 635 633 632 631 629 628 628 627 627 626 625 624 623 622 622 622 622 621 620 620 621 622 623 625 627 629 632 634 636 638 641 643 646 649 652 654 657 660 664 668 672 676 679 682 686 690
677 676 676 678 674 670 672 671 668 670 674 671 667 661 656 656 660 663 665 664 655 645 639 636 635 635 635 636 638 643 646 646 646 648 647 646 646 644 642 641 639 636 635 634 632 632 631 630 630 629 629 628 626 625 625 624 624 625 624 624 623 623 622 623 623 625 627 628 630 633 635 638 640 642 644 646 648 651 655 659 664 668 672 675 679 683
679 677 677 679 676 672 672 671 667 667 669 669 667 661 658 661 665 666 668 666 658 650 643 637 636 636 636 638 640 643 645 647 647 648 648 648 647 646 645 644 643 640 638 636 635 634 634 633 633 633 632 630 629 628 627 626 626 626 626 626 626 626 624 623 622 622 622 623 625 628 630 632 634 637 639 642 645 647 650 653 657 661 664 667 670 673
682 678 675 677 678 674 670 668 666 667 668 668 668 664 662 665 666 666 667 667 663 658 648 640 639 640 639 641 642 641 644 647 647 646 647 647 647 646 646 645 644 643 641 639 638 637 637 637 637 636 635 634 632 631 629 628 627 626 626 626 626 626 626 625 623 623 623 622 623 623 624 626 628 630 633 637 641 644 646 648 651 653 656 659 662 664
683 678 671 674 679 676 669 665 664 666 668 670 670 666 663 665 666 666 669 672 671 665 654 645 643 643 643 643 643 642 645 648 648 647 647 648 648 647 646 645 645 644 643 642 641 640 639 639 639 639 638 637 635 634 633 631 630 629 628 627 627 626 626 626 625 625 624 623 622 621 621 622 622 623 625 627 631 636 641 644 647 649 652 656 663 667
680 675 670 672 675 671 665 662 661 662 665 668 668 665 663 665 666 668 672 675 674 667 657 650 647 647 647 647 646 645 647 648 648 648 648 650 650 649 648 647 646 646 645 644 642 641 640 639 639 639 639 638 637 636 635 634 633 632 631 630 629 629 629 629 629 628 628 627 625 622 621 620 620 619 620 621 622 625 631 638 644 648 651 657 664 671
Wind_Speed
6 5 7 8 8 8 8 7 8 7 7 7 5 4 6 5 8 7 4 6 4 5 9 11 9 9 13 16 17 16 16 14 14 14 14 14 14 14 15 15 16 17 16 18 24 28 30 32 33 33 33 33 34 34 35 36 36 37 36 35 34 34 34 34 35 34 33 32 31 31 31 32 32 32 30 29 29 29 28 26 23 23 22 23 23 23
5 9 10 8 7 6 7 6 6 6 8 8 6 6 6 5 9 9 4 6 3 3 8 9 8 10 15 17 16 17 17 16 17 17 17 17 16 14 16 17 17 16 13 15 19 23 27 29 31 33 33 33 34 35 37 38 38 38 37 37 36 35 35 36 36 36 35 34 34 33 33 33 32 32 32 31 31 29 28 26 24 22 22 22 23 23
6 10 10 7 6 6 5 6 6 6 7 7 6 5 7 5 5 9 5 6 4 3 6 6 8 9 13 16 17 19 19 18 18 21 20 20 18 15 16 17 17 15 12 14 16 19 25 29 31 32 32 35 37 37 38 39 38 38 38 38 37 37 37 37 37 37 37 36 35 34 32 32 31 31 32 31 30 29 28 28 26 23 22 23 23 23
6 8 8 8 6 7 7 6 6 5 5 5 5 4 8 6 2 5 5 3 3 4 5 6 6 4 5 9 13 18 19 16 17 19 18 18 19 20 20 18 18 18 16 16 17 17 22 26 29 31 32 35 36 36 37 37 38 39 40 40 40 39 39 38 38 38 37 35 34 33 31 31 31 30 31 30 29 29 29 29 28 25 24 24 23 23
8 5 7 10 8 8 9 8 7 6 5 7 7 7 10 8 5 6 4 6 5 4 1 5 3 0 5 9 11 13 14 13 13 15 14 15 17 18 18 18 18 19 18 18 19 18 18 21 27 32 34 34 34 35 37 40 41 42 43 43 42 41 39 39 39 38 37 34 32 30 28 27 28 27 27 29 29 30 31 31 29 27 25 24 24 24
10 5 7 11 9 9 9 9 8 7 5 8 9 11 13 9 5 5 3 6 5 6 3 5 3 4 7 13 13 11 11 12 11 14 17 16 15 14 14 16 16 17 17 18 20 20 19 21 27 32 33 33 33 36 40 42 44 43 43 42 42 40 40 39 39 38 37 36 34 32 29 27 27 26 27 30 31 31 32 32 30 28 26 26 25 25
7 7 7 9 10 10 10 10 10 8 5 8 9 9 10 6 5 6 3 2 2 4 5 3 4 5 5 11 14 12 15 18 14 15 18 16 15 15 14 15 16 16 16 16 17 19 20 22 24 27 32 34 36 39 42 42 43 43 41 41 42 42 40 40 40 39 39 38 37 36 34 32 30 29 30 32 32 32 32 31 29 28 27 27 26 26
7 10 10 10 10 10 11 10 11 9 7 9 5 3 7 5 5 6 4 4 5 4 5 3 4 2 3 9 15 16 17 18 16 16 18 16 16 18 16 16 17 17 17 16 16 17 19 21 23 27 34 38 41 43 41 40 41 42 42 42 44 43 42 41 40 40 41 40 39 38 36 34 33 33 32 31 31 31 30 29 29 28 26 26 27 27
9 13 14 14 11 9 9 9 9 10 10 10 3 3 8 7 6 5 5 5 5 4 6 5 5 3 5 5 10 16 17 17 17 18 19 19 19 19 18 18 18 18 18 17 17 19 19 21 27 33 37 41 44 43 41 41 42 43 43 43 43 43 42 42 42 42 43 42 40 39 37 34 34 35 33 31 30 29 28 28 29 28 27 26 27 28
7 13 16 15 11 9 8 8 9 12 12 8 4 6 7 7 6 4 6 5 3 4 8 9 7 5 6 4 6 10 14 16 17 18 19 20 21 19 19 19 19 17 16 17 18 19 20 25 33 38 39 41 42 41 42 44 42 42 42 42 42 43 43 42 43 43 43 43 40 39 38 37 35 34 32 30 29 29 29 28 28 29 29 29 28 29
3 5 10 11 10 9 7 7 10 14 13 5 3 7 8 7 5 1 3 4 3 6 9 11 9 8 6 5 5 9 13 17 16 15 16 18 19 19 19 19 19 17 15 16 17 17 20 28 35 36 36 38 38 38 39 40 40 40 41 41 42 44 43 43 44 44 44 43 41 40 40 39 37 34 31 29 29 29 29 29 29 30 31 31 31 31
6 3 5 5 8 10 8 8 9 11 12 6 3 4 4 6 5 4 2 2 5 8 7 10 9 9 9 7 5 10 15 19 18 17 19 20 21 20 20 19 18 18 17 16 17 17 18 21 25 27 30 33 35 35 35 37 38 39 40 41 41 42 43 43 44 45 45 45 43 42 41 40 39 36 33 32 31 31 31 31 30 30 31 32 32 32
7 8 5 3 7 11 9 8 7 7 9 8 5 5 4 3 3 5 4 2 7 8 5 8 8 7 9 7 8 12 16 19 19 19 22 24 23 22 22 21 18 16 17 17 16 16 16 16 17 20 26 30 32 34 36 37 38 38 40 42 41 42 44 44 44 46 46 46 45 45 43 42 41 38 36 35 33 32 32 32 32 32 33 33 33 33
4 6 7 7 6 8 11 9 7 7 7 9 8 6 6 5 4 6 5 3 6 6 4 6 6 4 6 5 10 14 16 20 21 21 22 23 24 25 24 21 18 17 17 17 16 16 16 17 17 19 26 30 31 35 37 38 38 38 39 41 42 43 44 44 44 45 46 46 47 46 45 44 41 39 37 36 35 33 33 33 34 35 35 35 35 35
6 6 8 12 6 7 12 11 9 7 6 9 7 6 7 6 5 5 4 4 5 6 4 2 4 5 5 6 11 15 17 19 20 21 21 20 21 23 20 18 18 18 17 16 16 17 17 18 19 21 26 30 32 36 38 38 39 39 39 41 42 42 44 45 44 45 46 46 47 46 44 43 42 40 39 37 36 34 34 34 35 37 37 36 36 36
9 8 6 9 7 9 12 11 9 7 5 7 6 6 9 7 6 4 4 5 3 3 4 2 3 5 5 5 7 13 16 17 19 20 19 18 17 16 13 15 17 17 17 17 16 18 19 19 19 22 26 29 32 35 37 38 39 39 39 41 43 43 44 45 45 45 46 47 46 45 44 43 42 40 38 37 36 35 35 35 36 38 38 38 37 36
5 8 4 4 5 10 12 9 9 9 6 3 5 8 8 6 7 6 5 4 2 3 5 3 4 4 3 5 5 9 13 14 17 18 19 18 16 14 13 14 16 17 17 17 17 18 19 18 19 23 27 29 31 34 36 39 41 42 42 41 43 43 43 44 45 46 46 46 45 44 44 44 42 41 39 38 37 36 36 35 37 38 38 38 37 35
5 6 4 8 9 11 10 8 8 10 9 5 5 8 4 2 6 5 3 5 5 6 6 2 5 5 3 5 4 6 10 12 14 16 18 17 14 14 15 15 18 19 19 19 19 18 19 18 18 23 28 31 34 36 40 43 44 43 43 43 44 43 43 45 45 45 45 45 45 44 44 44 43 42 41 39 38 37 36 36 37 37 37 37 37 36
6 6 6 9 13 10 7 7 7 7 9 7 5 7 6 4 6 4 4 6 6 6 6 3 5 5 5 5 4 7 10 11 12 13 15 16 14 14 15 17 19 19 17 16 17 17 17 18 18 22 28 32 35 38 41 43 42 41 42 43 44 45 46 47 46 46 46 46 45 44 45 45 44 43 42 40 38 37 38 38 38 38 37 37 37 36
5 5 6 6 10 8 5 6 7 8 10 6 2 5 5 5 6 6 5 4 4 5 5 3 4 5 6 6 7 10 11 12 13 12 13 15 15 14 14 16 17 17 16 16 17 17 18 18 19 25 30 33 35 38 39 39 38 40 41 42 42 43 44 44 45 45 44 45 45 43 43 43 43 43 42 40 39 38 39 40 40 38 37 37 37 37
4 4 6 5 4 7 4 5 10 10 9 6 5 6 6 3 3 5 4 3 4 5 3 3 6 7 5 5 9 11 11 12 13 13 14 16 17 16 16 17 16 16 17 17 17 17 19 19 20 26 32 34 35 36 35 35 37 39 39 40 41 41 41 43 43 44 43 44 44 43 43 42 42 42 41 40 39 40 41 41 40 39 38 37 37 37
3 4 6 6 5 6 5 7 11 13 11 9 8 7 8 5 3 4 5 2 3 5 5 5 8 9 5 5 8 10 11 12 13 14 14 15 17 17 18 18 17 17 17 18 18 18 18 18 18 23 28 29 29 29 31 33 36 37 38 39 40 40 41 43 44 44 44 43 43 43 43 42 41 41 40 40 39 40 41 41 40 40 38 37 38 37
4 2 8 9 8 7 8 9 11 13 13 11 9 7 7 5 5 6 8 4 3 3 2 3 6 8 5 7 8 9 10 10 11 12 12 12 14 16 17 17 16 16 17 17 18 17 17 17 17 20 23 25 26 28 31 33 34 36 39 40 39 40 42 43 43 44 44 43 43 43 43 41 41 41 40 41 40 41 42 42 41 39 38 38 38 37
8 2 5 6 6 5 6 7 5 7 9 9 9 9 8 8 8 7 6 5 4 4 3 1 6 6 4 6 8 6 7 9 8 9 11 11 10 12 15 15 14 14 15 16 16 16 16 16 15 15 15 18 23 27 30 32 34 36 38 38 39 41 43 42 41 42 43 43 42 42 42 41 41 40 40 41 41 42 43 42 40 39 39 39 37 37
5 3 1 2 5 6 5 6 6 5 6 4 6 10 12 14 12 6 3 4 4 6 7 5 7 6 5 4 7 4 4 7 7 7 10 10 9 10 12 11 12 13 13 14 15 15 16 15 13 13 12 14 20 26 29 32 34 34 36 38 40 41 41 40 40 41 42 42 41 40 41 41 41 40 41 42 42 43 43 42 40 39 39 38 37 36
3 3 2 3 7 9 6 6 7 5 4 3 5 10 14 17 17 10 4 4 6 5 7 7 6 5 7 4 6 6 6 7 8 6 7 9 10 11 10 9 10 10 12 14 15 16 16 14 13 14 14 15 20 25 28 31 33 34 36 39 40 40 39 40 40 41 41 41 40 40 40 41 41 42 42 42 42 42 43 42 40 39 38 38 37 36
2 2 4 5 5 6 5 6 6 6 8 9 11 11 12 16 18 13 7 7 6 4 6 8 6 3 6 6 5 7 8 9 9 8 7 8 10 10 10 10 9 9 12 14 15 15 15 13 14 16 16 16 21 26 28 30 33 34 35 37 39 39 39 39 40 41 41 41 40 40 41 42 43 42 42 43 42 42 41 40 40 39 38 38 37 36
2 2 5 5 6 6 6 11 11 8 11 14 14 14 13 13 15 16 13 9 9 7 9 8 8 6 7 7 7 8 8 9 10 10 9 9 9 9 9 10 10 11 11 11 11 13 14 15 15 16 16 16 19 24 27 30 33 35 35 36 37 38 38 39 40 41 41 41 40 41 42 44 43 43 42 42 41 40 39 39 39 39 38 37 37 37
2 3 4 6 11 12 9 12 13 11 12 12 14 17 16 13 15 18 17 11 11 11 11 8 11 11 8 8 8 9 10 11 10 9 7 6 7 8 8 9 11 12 13 12 12 13 14 16 16 15 16 16 17 21 25 27 30 32 33 34 36 37 39 40 40 41 40 40 41 43 44 43 42 41 41 39 38 39 39 38 38 37 36 36 37 37
2 4 5 8 12 14 13 12 11 10 11 11 12 17 17 16 17 18 16 13 14 15 11 9 12 12 9 10 11 11 11 9 5 4 6 6 7 8 9 10 12 13 14 15 16 16 16 17 17 16 17 16 16 19 23 25 28 31 32 34 35 37 39 40 41 41 40 40 43 44 42 41 41 40 39 38 38 38 38 37 36 35 36 36 36 35
2 4 8 9 9 10 11 10 10 9 10 12 13 13 16 19 19 19 17 13 11 12 10 8 10 9 8 8 10 11 9 5 3 5 7 9 8 8 8 10 12 13 14 14 14 15 16 16 16 15 15 16 17 20 24 26 29 32 32 33 36 38 40 40 41 41 41 43 44 42 41 41 40 39 39 39 38 37 37 36 35 34 35 35 34 34
2 3 7 7 5 7 7 8 13 15 10 10 14 15 16 17 17 16 14 11 11 12 11 9 8 7 8 8 8 9 7 5 7 8 7 8 7 8 9 11 11 12 13 13 13 13 14 15 15 16 16 16 17 21 25 27 28 29 30 33 36 39 39 39 40 40 42 42 41 39 40 40 40 39 39 39 38 37 36 35 34 34 34 34 34 33
2 2 5 5 4 6 8 10 13 13 8 8 15 17 16 14 13 12 10 10 12 13 11 11 10 9 10 8 6 8 8 8 10 8 7 7 6 6 9 10 12 13 12 12 12 13 15 14 14 16 17 17 20 26 31 32 30 31 34 37 38 36 36 37 39 39 40 40 38 38 40 39 39 39 39 39 39 37 35 34 34 34 35 34 34 34
3 3 4 4 3 6 11 12 10 6 6 10 9 11 14 13 11 10 10 11 12 11 9 9 10 12 11 8 9 11 10 7 5 4 4 4 3 5 7 8 10 11 11 11 11 12 12 12 13 14 16 20 26 31 34 35 34 36 38 37 35 34 36 37 38 39 39 38 38 39 38 38 39 39 39 38 37 35 34 34 35 36 35 34 34 34
5 4 4 4 3 6 8 7 5 4 7 8 5 4 12 14 11 11 10 10 11 11 9 7 8 11 10 8 9 8 4 3 4 4 3 4 2 2 5 6 7 7 8 9 11 11 11 11 10 10 13 20 26 29 29 31 33 34 34 34 34 35 37 38 37 37 37 37 37 38 38 38 39 39 37 36 35 34 35 36 36 36 36 35 35 37
8 5 4 4 4 4 4 2 4 6 9 10 6 5 3 3 5 9 9 7 6 7 8 8 9 9 7 7 8 5 6 6 4 5 5 6 6 5 5 5 5 5 7 7 8 10 11 12 14 15 18 22 25 26 27 31 33 32 31 33 35 35 37 36 35 34 34 34 35 36 37 39 39 37 36 34 34 35 36 37 37 37 37 36 37 37
10 6 3 3 4 3 3 4 4 6 10 8 3 6 7 4 4 5 7 7 5 5 7 8 9 8 6 6 7 8 8 5 3 4 5 8 8 7 6 6 5 4 5 5 6 7 7 10 15 20 23 24 25 27 30 32 34 32 29 30 32 33 34 33 32 34 34 35 36 37 37 38 37 36 35 34 35 37 38 38 39 38 38 38 37 37
13 10 6 5 4 3 3 4 3 4 5 3 4 9 8 7 11 11 7 7 6 4 5 7 9 9 8 9 10 9 7 6 2 4 5 8 9 9 8 7 7 6 5 4 3 2 4 7 11 14 17 21 23 28 31 31 30 28 26 27 29 30 30 30 32 34 36 37 39 39 39 39 37 35 35 36 37 38 38 39 39 39 39 39 38 38
14 12 8 6 5 3 2 2 2 4 5 2 9 16 15 14 13 7 3 6 6 4 1 4 7 7 9 11 10 7 7 6 4 5 6 7 8 8 8 8 9 9 9 9 9 8 6 5 7 9 10 13 19 24 25 25 26 25 23 25 28 27 27 29 32 35 36 38 40 40 40 39 38 36 36 38 40 40 40 40 39 39 39 39 38 36
11 9 7 7 7 4 2 2 3 4 4 5 13 18 18 16 9 2 5 7 6 4 3 4 3 3 6 8 7 5 5 5 5 3 5 7 7 6 7 8 8 9 8 9 12 13 12 7 3 9 11 14 19 23 22 22 23 22 23 25 25 25 27 32 36 37 39 39 38 37 38 38 39 40 40 41 42 41 40 40 38 37 38 37 36 35
6 5 5 6 7 4 3 1 3 4 3 8 15 18 18 12 2 7 6 7 4 4 4 5 4 2 4 6 5 4 2 1 1 2 4 6 6 6 8 7 6 7 8 9 12 14 13 11 6 3 8 11 12 15 20 22 20 20 22 22 21 26 33 39 41 40 40 38 35 35 37 39 41 43 44 43 42 40 40 39 38 38 37 36 35 34
3 2 3 5 5 3 3 1 3 4 3 11 16 16 12 5 3 5 5 8 5 2 4 6 6 6 8 8 8 7 5 4 5 6 6 8 8 8 9 10 9 11 12 14 18 19 15 11 10 7 2 2 3 7 14 20 20 19 20 18 21 30 36 37 37 38 37 35 34 35 36 39 41 42 42 41 40 39 39 39 38 37 36 35 34 33
2 2 2 5 4 2 2 1 3 4 3 12 15 11 7 5 2 6 10 10 6 2 3 5 5 6 9 11 10 9 8 6 7 7 8 9 9 8 9 10 10 10 12 13 16 19 16 11 9 11 11 8 4 4 10 15 17 16 16 17 23 28 26 23 27 31 30 30 32 34 36 39 39 39 39 38 38 38 37 36 36 35 34 33 31 29
2 2 2 3 3 3 4 4 2 3 3 8 8 5 5 7 7 7 8 6 5 5 2 4 6 5 8 12 11 9 9 9 8 8 8 9 9 8 8 10 10 10 10 10 12 16 15 11 10 13 15 15 11 4 5 12 15 13 12 17 22 21 18 18 22 25 26 28 31 34 36 37 38 38 37 36 36 35 32 33 33 32 30 30 28 25
2 3 2 3 2 2 3 4 3 1 3 4 3 3 7 9 11 11 8 5 4 5 4 3 6 5 7 10 11 9 9 9 9 9 9 8 8 8 8 9 10 10 10 10 13 16 14 10 10 12 14 17 15 10 3 4 12 15 16 19 21 19 19 19 20 22 26 28 31 33 34 35 36 37 36 35 34 33 32 32 30 28 27 28 28 28
1 1 3 3 2 1 2 1 2 2 2 4 2 3 7 10 12 13 10 7 6 5 4 4 6 6 6 8 10 9 7 7 8 8 7 7 7 8 8 8 9 10 10 10 12 15 14 11 11 11 11 14 16 14 11 7 3 8 13 18 20 19 21 22 22 24 27 29 31 33 34 33 33 34 35 36 37 38 37 36 33 32 32 33 32 32
3 3 2 2 2 1 2 1 2 4 2 4 4 6 9 10 11 11 9 8 7 5 5 5 6 7 7 8 10 10 7 6 8 7 6 6 7 7 7 8 8 9 10 10 11 13 13 11 11 10 9 11 14 14 12 11 9 8 7 10 13 16 20 22 24 26 28 30 33 33 33 33 33 34 36 37 38 38 37 38 38 36 35 35 35 33
3 2 2 3 4 1 4 3 2 5 4 3 4 5 7 8 8 9 9 9 9 8 7 7 7 7 8 9 9 10 9 7 7 8 7 6 6 6 6 7 7 7 8 9 11 12 11 9 8 9 9 10 13 14 13 12 11 9 6 6 8 12 16 21 25 26 27 29 30 30 31 33 33 32 32 33 34 34 34 36 38 38 38 39 40 38
5 4 3 3 3 2 3 2 2 5 5 4 4 4 5 5 5 8 9 11 11 9 8 9 9 8 8 8 7 10 11 8 7 8 8 7 7 7 6 6 7 7 8 9 10 11 10 9 9 9 9 11 13 14 14 15 14 11 8 6 8 10 12 15 17 19 22 25 27 29 31 33 35 35 34 32 31 32 33 37 39 40 42 44 46 46
6 4 2 4 3 3 2 2 2 4 4 1 1 2 4 4 4 6 7 9 9 8 6 8 10 9 9 8 7 9 11 8 7 9 9 8 7 7 7 7 7 8 9 11 10 10 10 10 10 9 9 10 11 12 12 13 13 13 11 7 5 6 7 8 10 13 17 21 25 29 32 33 35 36 37 37 37 35 32 33 35 36 36 37 38 40
3 3 1 1 3 3 2 2 2 2 4 3 2 1 4 4 3 4 3 5 7 7 5 5 9 9 9 8 7 8 9 7 7 8 9 8 7 6 7 8 8 8 10 12 11 10 10 11 11 11 10 10 11 11 11 12 13 13 13 11 7 3 1 4 6 9 11 14 18 23 28 30 32 34 35 37 40 40 35 29 25 25 28 32 35 35
Wind_Direction
165 197 218 209 214 206 207 213 218 237 242 241 235 236 241 247 266 252 248 277 230 189 219 206 197 186 176 179 180 177 180 183 183 184 185 185 186 187 189 192 192 197 202 195 191 191 191 192 192 192 193 194 196 198 198 199 201 201 202 202 203 204 205 204 203 203 205 207 209 212 215 218 221 224 226 226 226 228 230 232 233 232 230 229 228 228
166 213 227 207 202 197 202 210 209 227 239 245 240 252 261 238 261 267 247 274 259 177 240 215 184 197 187 180 179 175 180 187 187 186 189 189 190 191 191 193 195 199 199 190 191 193 191 191 191 191 192 193 194 196 198 199 201 202 202 203 204 204 205 205 204 203 204 207 209 211 214 216 219 221 222 222 223 225 229 231 233 231 228 227 228 229
205 227 221 192 183 184 212 216 202 226 236 242 236 244 265 240 264 285 255 247 230 188 248 209 182 214 198 180 179 179 185 191 191 190 189 188 188 192 194 195 196 196 192 190 192 192 191 191 190 191 192 194 196 197 198 199 200 201 203 204 205 205 205 206 205 205 205 208 210 212 214 216 218 220 221 222 223 225 227 231 232 231 229 228 229 229
211 230 202 173 170 186 225 235 213 241 243 237 233 225 255 238 189 275 273 294 264 218 217 184 181 218 191 186 189 190 192 191 194 197 193 189 189 193 195 194 193 191 190 192 193 192 191 190 190 192 194 196 196 196 197 198 199 201 203 204 205 205 205 206 206 207 207 208 210 213 217 218 219 221 222 223 225 226 227 229 230 230 230 229 230 231
222 231 173 165 175 186 216 237 221 239 252 247 237 223 248 244 197 234 282 349 321 282 215 131 118 177 166 191 205 201 202 199 197 199 201 203 200 199 197 195 194 192 190 191 191 191 191 190 191 194 196 196 195 196 197 197 198 201 203 203 204 205 205 205 206 207 207 207 209 212 215 217 218 220 222 221 223 224 225 225 226 227 229 229 230 232
232 223 155 170 191 190 208 233 219 210 242 262 246 228 241 248 230 246 315 0 335 306 298 134 147 264 194 193 205 197 200 208 203 199 205 208 205 206 204 200 199 196 196 194 191 190 189 191 193 195 196 195 196 199 200 200 200 201 202 202 203 204 205 206 206 206 206 206 207 208 208 208 209 212 216 217 218 219 220 221 223 226 229 231 231 232
218 188 162 180 194 196 208 228 218 196 219 257 245 234 247 243 226 247 276 334 285 271 277 180 182 255 212 197 205 196 198 205 201 203 209 207 203 207 206 203 200 198 199 201 199 193 190 191 192 193 195 195 199 202 201 201 202 201 201 201 202 204 205 206 205 204 204 205 206 207 208 207 207 209 214 217 217 216 217 219 222 224 228 231 232 232
172 177 188 191 189 199 211 222 210 181 206 245 237 254 274 255 222 232 208 213 238 258 290 255 177 227 232 206 202 194 201 207 203 206 210 208 208 208 208 206 202 200 197 199 202 198 194 193 193 194 195 197 201 202 201 200 201 201 201 201 202 203 204 205 205 204 204 204 205 207 208 209 210 212 215 217 216 216 217 219 221 223 227 229 230 231
163 182 195 193 196 211 211 213 194 176 216 244 224 236 266 260 242 215 185 218 237 249 273 244 175 207 271 238 203 194 198 205 207 210 209 208 210 208 209 208 204 203 200 197 199 198 196 195 196 197 198 200 202 201 199 200 201 201 201 201 201 202 203 204 204 203 204 205 206 207 208 210 212 214 216 217 216 217 217 218 219 222 226 228 229 229
173 191 191 189 204 216 206 203 188 190 220 236 213 242 269 271 257 200 184 214 216 215 247 237 187 204 264 258 193 192 198 204 208 211 210 209 209 208 208 209 207 205 203 201 201 200 199 196 197 199 200 202 203 200 199 200 200 199 199 200 200 201 202 203 204 204 204 205 206 207 208 210 213 214 216 217 217 216 216 217 219 223 227 229 229 228
214 195 184 191 208 205 188 196 201 206 218 209 184 241 269 280 289 300 171 162 198 235 239 233 200 189 247 254 186 188 199 202 204 210 213 212 211 210 210 210 207 204 203 203 204 204 204 201 200 199 200 202 202 201 200 200 199 198 198 198 199 201 202 202 203 204 204 205 205 208 209 211 213 213 214 214 214 214 214 216 219 224 227 228 229 229
235 228 193 199 203 193 182 200 214 212 214 210 167 190 244 284 308 308 307 128 221 242 232 230 211 191 229 250 206 199 199 198 201 205 208 210 210 211 211 210 206 204 203 202 203 205 205 204 202 200 202 203 201 200 200 199 199 198 197 197 198 200 201 202 202 203 204 204 205 208 209 211 213 213 213 214 215 214 213 215 218 222 224 225 227 227
223 227 228 237 203 189 184 200 217 214 207 206 186 159 182 249 264 244 249 227 235 248 228 212 204 205 234 236 207 203 198 199 204 205 207 207 207 209 210 209 205 203 203 202 203 203 202 202 200 199 202 202 200 200 199 199 198 198 198 197 197 199 200 201 202 202 204 204 206 207 209 211 213 213 214 215 217 216 214 215 216 218 219 221 222 223
228 239 228 231 227 192 185 188 204 213 201 198 193 173 180 203 215 220 234 254 251 260 244 196 180 221 264 238 204 201 200 201 203 208 210 207 206 208 208 205 203 202 202 203 203 202 202 202 201 199 199 199 199 200 199 198 198 197 198 197 197 199 200 201 201 202 203 205 207 208 209 211 212 212 214 216 217 218 216 215 216 218 219 219 220 221
210 244 218 210 204 175 193 202 193 178 184 205 192 168 195 202 191 203 209 225 248 263 263 200 170 201 225 224 202 195 202 203 203 209 210 209 210 210 207 202 201 203 202 203 204 203 204 203 202 201 200 199 199 199 199 199 197 197 197 198 198 198 199 200 201 202 203 206 207 208 209 211 211 212 214 215 218 218 218 217 217 220 220 220 221 222
207 239 234 213 195 171 196 209 180 153 187 210 163 163 211 198 172 214 210 188 205 266 256 215 207 215 217 246 218 196 202 204 205 209 208 212 215 208 206 203 202 206 204 202 203 204 206 205 203 203 201 200 200 199 199 199 197 197 198 198 199 199 199 199 200 202 204 206 207 208 209 210 212 212 213 214 216 218 219 219 219 221 222 222 222 223
195 239 229 184 211 203 200 195 175 175 189 180 157 192 208 173 175 224 239 212 195 263 254 205 236 271 276 276 249 198 202 205 205 209 209 213 209 199 202 203 204 207 205 203 203 203 206 204 204 204 203 202 199 198 200 200 199 198 197 198 199 200 199 199 201 202 204 205 207 208 209 210 211 212 213 213 214 216 218 220 221 222 223 222 222 223
176 257 238 179 217 229 202 190 198 189 168 150 189 197 160 138 205 205 219 237 233 250 266 218 228 247 220 254 256 188 200 210 210 211 212 213 204 198 203 203 205 208 205 204 203 203 206 204 203 204 204 204 201 199 200 201 200 199 198 198 198 199 199 200 201 202 204 205 207 209 209 210 211 212 213 213 214 214 215 219 221 222 222 222 222 222
180 252 266 196 207 222 186 187 231 225 201 203 197 172 143 178 217 187 185 222 216 238 272 277 252 234 202 224 224 192 202 209 211 213 215 215 205 202 207 204 206 208 205 205 204 204 207 205 204 204 205 205 203 202 203 202 200 199 200 200 199 199 200 201 201 202 204 205 207 209 210 210 211 212 213 213 213 213 214 218 220 221 222 222 222 223
176 218 257 217 195 199 178 180 211 230 229 229 159 166 179 179 193 191 186 193 192 225 260 275 264 238 216 206 188 195 208 206 207 209 213 217 210 206 208 206 207 206 203 204 204 205 206 206 205 204 205 205 203 204 204 201 199 199 200 200 200 201 201 201 202 202 204 206 207 209 210 211 211 211 212 212 212 212 215 218 220 221 222 223 223 223
185 199 240 261 205 194 191 188 200 208 215 215 192 195 203 190 185 201 199 169 169 191 209 234 254 250 240 205 183 192 206 206 205 206 210 214 210 207 208 207 205 203 203 204 203 204 206 206 206 205 206 206 204 204 202 198 199 199 200 200 201 200 200 201 203 203 204 206 207 209 210 211 211 212 212 212 212 213 216 218 220 221 223 223 223 222
222 195 216 243 230 206 211 201 200 204 203 202 204 203 202 189 138 177 220 217 169 188 185 201 250 259 247 202 188 192 202 207 206 206 213 216 210 209 210 208 205 201 203 203 201 203 205 206 206 205 206 205 203 202 199 198 199 199 199 200 201 200 200 201 202 202 204 206 207 209 210 211 211 211 212 212 212 214 216 218 219 221 222 223 223 222
322 219 211 232 231 215 220 214 204 208 206 202 206 202 194 181 145 179 218 216 199 227 173 167 253 263 238 194 191 196 200 209 211 204 211 220 215 213 213 210 206 203 203 202 201 202 204 205 206 204 201 199 199 199 197 197 198 198 199 200 199 200 202 203 202 202 204 205 207 209 210 211 212 211 211 211 212 214 216 218 219 219 221 222 223 222
348 290 220 246 260 255 253 254 242 213 200 203 212 199 189 196 192 197 203 181 202 221 148 182 255 261 248 199 195 214 211 208 217 207 208 222 223 221 220 214 208 205 203 202 201 202 205 206 204 201 197 195 197 197 197 197 198 199 199 198 199 202 203 202 201 202 204 205 208 209 209 211 211 211 211 212 212 214 216 217 218 218 219 221 221 221
341 307 281 243 248 251 261 266 262 225 199 207 215 204 203 204 198 198 168 153 220 209 165 190 240 249 278 230 190 224 232 208 221 216 209 219 224 226 226 218 211 207 202 202 202 202 205 204 199 196 194 193 195 196 196 198 198 198 197 198 200 202 202 201 200 201 204 206 207 208 209 210 211 211 211 212 213 214 216 216 216 217 218 219 219 220
249 260 259 200 220 230 229 231 224 199 199 230 216 209 210 205 199 197 176 184 227 216 170 188 222 251 289 267 188 205 221 214 232 236 221 225 226 226 228 221 214 208 203 202 202 203 205 201 195 195 195 195 195 195 196 197 197 197 197 199 200 200 199 199 199 201 203 205 206 207 209 210 211 211 212 213 213 214 216 216 216 216 216 217 218 219
241 246 259 230 228 240 257 274 250 183 188 216 218 215 216 212 205 197 195 201 198 195 205 203 188 210 271 261 227 240 236 223 233 234 222 227 227 223 222 218 209 205 209 207 202 203 202 198 197 196 196 197 196 196 196 195 196 196 197 198 199 199 198 197 198 200 203 204 205 207 209 210 212 212 212 213 214 215 215 216 215 215 215 216 217 217
341 318 287 271 276 273 277 289 281 236 211 212 211 216 221 217 208 205 215 203 155 176 229 212 171 192 241 249 246 254 246 236 238 233 223 225 227 222 221 218 207 204 211 212 207 204 199 198 202 199 196 196 195 196 196 196 196 197 197 198 197 196 197 196 197 200 202 203 205 207 209 211 212 213 213 214 214 215 216 216 216 215 215 215 215 217
319 260 283 311 313 307 298 290 283 264 242 220 205 211 217 214 210 214 219 197 165 198 228 203 183 201 223 233 233 237 238 236 236 236 239 241 233 228 223 220 215 209 205 203 203 202 200 201 201 197 196 195 193 193 194 195 197 197 197 197 195 195 196 195 196 200 202 203 205 208 209 210 211 213 214 214 213 214 216 216 217 216 214 214 215 216
306 266 306 321 315 311 305 295 285 268 255 243 220 209 209 213 215 217 218 202 196 216 221 192 194 207 212 214 217 224 232 233 226 235 263 262 235 223 217 214 218 215 208 203 200 197 199 202 200 197 195 193 191 191 192 194 195 195 196 195 194 195 196 195 196 199 201 203 206 208 208 208 210 211 212 213 213 214 215 216 217 216 215 215 215 216
3 302 309 320 318 306 303 313 321 302 263 250 244 224 211 213 216 218 216 203 204 223 225 199 199 220 241 227 219 229 238 253 257 230 244 251 230 211 214 219 221 219 214 210 204 198 198 198 197 196 194 193 193 191 191 194 194 194 195 194 194 196 196 195 197 199 201 205 207 206 205 206 208 209 210 212 213 214 214 214 215 215 215 215 215 215
2 298 304 323 325 297 303 336 334 322 304 259 245 236 220 212 214 220 214 196 193 204 215 219 213 230 250 236 233 252 255 256 254 233 232 251 237 202 206 220 225 225 222 214 204 197 198 198 195 193 193 195 194 192 193 193 192 193 194 194 196 197 195 195 198 200 204 206 206 204 204 205 206 207 209 210 211 212 213 213 213 214 215 215 214 214
218 271 305 324 317 289 300 320 320 318 312 257 234 227 224 219 214 216 216 210 199 185 196 221 220 221 228 211 208 244 244 238 244 236 230 253 259 227 220 222 221 222 223 217 206 198 197 197 195 195 196 194 192 194 195 192 190 193 195 196 197 195 193 195 199 202 205 206 205 204 204 204 204 206 208 209 209 210 210 210 212 213 214 215 214 213
216 232 279 303 301 285 295 310 315 293 246 249 238 204 211 221 211 206 215 218 209 194 199 216 214 221 225 193 186 218 231 232 232 227 234 258 265 247 246 246 238 233 225 213 207 205 201 200 201 201 200 198 197 197 196 193 193 196 197 196 194 192 193 197 200 203 205 205 204 204 204 203 204 206 207 208 207 207 207 209 211 213 214 214 213 212
245 242 264 272 254 275 296 315 311 248 231 263 291 188 207 213 195 193 215 222 215 210 207 205 216 227 223 198 202 214 200 137 121 86 30 353 345 284 264 259 251 251 242 220 208 205 201 197 201 205 204 202 201 199 196 196 197 198 197 194 192 193 196 199 201 203 205 204 204 204 203 202 205 206 206 205 204 204 206 208 210 211 212 212 212 213
236 235 245 255 245 261 290 283 243 259 283 292 315 15 340 250 181 188 211 238 245 214 194 197 218 223 206 199 207 186 150 144 113 66 37 14 9 359 328 291 257 236 239 236 223 214 206 197 194 197 200 201 198 195 195 198 199 198 196 194 193 194 197 199 201 203 204 204 205 205 203 203 204 205 204 202 202 203 205 207 209 210 210 211 212 213
223 226 223 239 239 226 242 260 260 289 303 298 325 19 6 337 298 264 230 235 250 208 186 196 206 202 181 178 177 164 158 140 60 11 5 13 4 353 343 324 304 270 242 240 236 234 241 230 211 199 194 193 193 195 197 199 199 197 194 192 193 195 197 198 201 202 203 204 205 205 206 205 204 203 201 200 201 203 205 207 208 209 209 209 210 211
204 208 204 211 225 214 229 268 291 287 274 271 323 329 330 321 310 303 269 245 253 236 201 188 184 178 158 152 160 160 140 104 66 302 331 2 355 346 347 343 345 355 352 336 310 271 270 256 235 217 202 194 195 199 200 198 197 195 192 191 192 194 196 199 203 204 203 204 204 204 205 205 205 203 200 199 202 205 206 207 208 208 208 209 209 210
203 203 201 211 235 242 222 234 263 257 240 279 334 329 329 325 314 308 266 253 268 290 249 158 170 174 154 152 162 152 126 132 196 264 321 350 347 344 347 349 1 8 6 9 10 355 326 275 228 216 207 203 206 207 202 198 196 193 192 192 191 192 195 201 205 206 205 206 206 204 204 203 203 202 201 202 204 206 206 207 208 208 208 209 209 210
211 202 199 215 226 215 180 219 250 259 259 327 341 330 320 315 311 146 182 242 271 337 35 97 137 177 145 141 139 107 109 161 193 253 331 345 342 347 356 356 0 1 0 7 7 358 351 345 239 196 193 203 212 210 202 197 195 194 196 194 190 191 198 204 206 207 209 209 207 205 204 202 202 203 203 204 205 206 207 208 208 207 208 208 209 209
206 197 184 195 205 182 146 201 273 271 286 344 340 322 313 310 268 159 193 250 295 16 55 86 101 113 105 111 112 89 75 139 118 21 359 2 1 1 3 360 360 7 9 7 5 5 8 11 6 228 211 216 218 210 201 195 193 199 202 197 193 198 204 206 207 208 209 209 206 205 205 203 203 204 205 206 205 204 206 207 206 206 206 206 206 207
189 180 167 173 184 168 134 130 296 273 326 355 335 315 319 335 175 196 278 297 310 15 86 93 96 99 87 81 92 101 95 68 50 37 23 21 21 13 7 8 11 11 10 9 9 9 10 14 23 29 13 243 218 206 199 194 196 203 204 201 206 211 211 210 209 209 208 207 205 205 205 205 206 206 207 207 205 203 204 205 205 205 205 203 203 204
167 140 200 184 164 94 106 114 286 253 310 350 337 327 358 21 276 285 305 303 304 331 96 99 85 90 96 91 90 98 99 82 61 52 41 34 31 23 14 16 17 12 10 10 9 8 6 6 15 23 29 42 74 171 189 191 199 206 204 207 218 222 223 220 215 212 209 206 204 205 205 206 207 207 207 207 204 203 203 202 202 203 202 200 199 198
190 149 218 199 154 128 168 182 210 238 299 342 344 336 345 336 314 312 312 302 309 322 350 88 75 76 103 107 105 103 99 90 75 64 55 44 36 30 23 19 17 14 14 13 9 9 12 13 5 5 15 27 37 59 177 191 197 200 205 218 223 225 228 228 220 213 209 206 205 206 206 206 206 206 207 206 204 202 201 199 199 199 196 193 189 182
199 154 222 250 218 149 167 174 154 174 292 317 333 317 328 343 347 343 335 325 317 316 330 70 84 75 87 100 101 94 87 83 74 65 59 49 36 30 28 26 23 19 14 12 11 12 15 21 15 8 9 15 19 20 10 215 199 196 206 218 220 217 217 219 216 211 209 207 207 208 206 205 205 205 204 203 200 199 198 196 192 186 181 179 175 166
274 205 230 254 258 88 75 79 117 107 317 309 325 348 358 9 3 350 342 332 319 327 357 50 78 71 69 88 93 88 85 88 83 72 61 56 44 33 28 28 26 24 22 20 15 12 14 20 21 18 13 8 9 10 5 348 276 226 223 218 212 212 212 210 207 207 208 207 208 208 205 203 202 201 200 199 198 197 195 191 185 177 173 170 167 161
262 261 233 227 250 171 121 195 160 109 26 331 356 19 21 21 10 356 341 321 317 345 23 47 66 73 75 81 87 92 95 94 92 86 69 59 52 40 36 33 24 22 26 25 20 16 18 23 23 19 14 6 3 4 3 360 352 329 283 235 218 215 211 205 201 202 203 204 205 205 202 198 196 196 195 195 194 193 190 186 181 175 171 168 165 162
248 245 190 211 254 205 140 182 181 125 97 15 14 33 30 21 9 358 342 326 330 352 22 43 53 64 71 70 79 91 85 72 77 81 70 62 56 44 43 41 32 30 33 29 26 25 24 24 23 18 13 5 359 358 1 4 1 349 325 277 247 229 215 205 200 198 197 197 197 196 193 191 190 188 187 188 187 184 181 179 178 174 174 175 173 168
268 256 190 190 235 191 143 184 176 132 110 36 17 46 54 34 11 4 353 338 335 343 11 44 49 50 60 64 71 82 77 63 62 68 62 54 47 39 36 38 36 36 36 33 34 35 31 26 24 21 16 8 3 2 5 8 6 359 344 303 260 238 223 211 201 193 188 184 182 182 182 183 182 181 179 176 176 175 175 177 179 178 179 182 182 180
263 254 180 163 192 201 188 202 178 145 130 93 341 43 62 53 35 26 1 330 322 326 356 51 60 53 52 54 57 75 79 68 56 66 65 53 40 33 28 31 36 35 31 31 36 41 40 37 33 29 23 14 13 17 19 20 21 16 5 343 298 262 237 209 189 181 180 178 177 178 179 179 180 179 175 170 167 166 167 172 178 181 180 178 180 184
247 259 266 164 195 220 215 201 185 139 125 146 193 101 81 71 53 55 16 311 306 312 338 57 78 72 63 55 50 67 82 74 58 66 67 52 36 33 31 32 36 35 29 28 30 34 37 36 32 27 20 13 17 25 30 35 41 42 40 39 34 22 150 170 173 182 191 195 193 187 182 180 180 177 174 171 169 165 156 149 153 162 166 170 175 182